Time,TemperatureF,DewpointF,PressureIn,WindDirection,WindDirectionDegrees,WindSpeedMPH,WindSpeedGustMPH,Humidity,HourlyPrecipIn,Conditions,Clouds,dailyrainin,SoftwareType,DateUTC
2013-08-08 00:11:00,54.0,47.0,-100.00,SSE,154,2.0,5.0,77,0.00,,,-99.99,,2013-08-08 06:11:00,
2013-08-08 00:21:00,54.0,47.0,-100.00,South,176,3.0,6.0,75,0.00,,,-99.99,,2013-08-08 06:21:00,
2013-08-08 00:32:00,53.0,45.0,-100.00,South,169,1.0,2.0,76,0.00,,,-99.99,,2013-08-08 06:32:00,
2013-08-08 00:52:00,51.0,45.0,-100.00,ESE,116,4.0,8.0,80,0.00,,,-99.99,,2013-08-08 06:52:00,
2013-08-08 01:22:00,52.0,43.0,-100.00,SW,224,1.0,3.0,71,0.00,,,-99.99,,2013-08-08 07:22:00,
2013-08-08 01:53:00,52.0,43.0,-100.00,WNW,282,4.0,6.0,71,0.00,,,-99.99,,2013-08-08 07:53:00,
2013-08-08 02:02:00,54.0,41.0,-100.00,WNW,284,4.0,6.0,61,0.00,,,-99.99,,2013-08-08 08:02:00,
2013-08-08 02:11:00,55.0,40.0,-100.00,NW,308,3.0,5.0,56,0.00,,,-99.99,,2013-08-08 08:11:00,
2013-08-08 03:12:00,49.0,45.0,-100.00,WNW,302,6.0,7.0,87,0.00,,,-99.99,,2013-08-08 09:12:00,
2013-08-08 03:22:00,49.0,45.0,-100.00,NW,305,6.0,8.0,86,0.00,,,-99.99,,2013-08-08 09:22:00,
2013-08-08 03:32:00,49.0,44.0,-100.00,NW,311,7.0,9.0,84,0.00,,,-99.99,,2013-08-08 09:32:00,
2013-08-08 03:43:00,49.0,45.0,-100.00,WNW,301,6.0,9.0,85,0.00,,,-99.99,,2013-08-08 09:43:00,
2013-08-08 03:53:00,49.0,44.0,-100.00,WNW,285,6.0,7.0,82,0.00,,,-99.99,,2013-08-08 09:53:00,
2013-08-08 04:01:00,50.0,44.0,-100.00,WNW,284,5.0,7.0,81,0.00,,,-99.99,,2013-08-08 10:01:00,
2013-08-08 04:12:00,49.0,44.0,-100.00,NW,304,6.0,7.0,83,0.00,,,-99.99,,2013-08-08 10:12:00,
2013-08-08 04:22:00,49.0,44.0,-100.00,NW,309,6.0,7.0,82,0.00,,,-99.99,,2013-08-08 10:22:00,
2013-08-08 04:32:00,51.0,44.0,-100.00,NW,308,4.0,6.0,79,0.00,,,-99.99,,2013-08-08 10:32:00,
2013-08-08 04:43:00,49.0,43.0,-100.00,WNW,301,6.0,8.0,80,0.00,,,-99.99,,2013-08-08 10:43:00,
2013-08-08 04:52:00,48.0,43.0,-100.00,WNW,301,6.0,7.0,82,0.00,,,-99.99,,2013-08-08 10:52:00,
2013-08-08 05:02:00,48.0,42.0,-100.00,WNW,295,7.0,9.0,80,0.00,,,-99.99,,2013-08-08 11:02:00,
2013-08-08 05:11:00,49.0,43.0,-100.00,WNW,294,6.0,7.0,79,0.00,,,-99.99,,2013-08-08 11:11:00,
2013-08-08 05:21:00,50.0,43.0,-100.00,WNW,282,5.0,6.0,77,0.00,,,-99.99,,2013-08-08 11:21:00,
2013-08-08 05:32:00,49.0,43.0,-100.00,WNW,295,4.0,6.0,77,0.00,,,-99.99,,2013-08-08 11:32:00,
2013-08-08 05:43:00,47.0,42.0,-100.00,NW,309,5.0,6.0,82,0.00,,,-99.99,,2013-08-08 11:43:00,
2013-08-08 05:52:00,48.0,42.0,-100.00,NW,305,4.0,6.0,77,0.00,,,-99.99,,2013-08-08 11:52:00,
2013-08-08 06:01:00,49.0,41.0,-100.00,WNW,299,2.0,5.0,73,0.00,,,-99.99,,2013-08-08 12:01:00,
2013-08-08 06:11:00,48.0,44.0,-100.00,SSE,154,2.0,4.0,86,0.00,,,-99.99,,2013-08-08 12:11:00,
2013-08-08 06:21:00,46.0,44.0,-100.00,East,89,1.0,3.0,93,0.00,,,-99.99,,2013-08-08 12:21:00,
2013-08-08 06:32:00,44.0,43.0,-100.00,NE,51,2.0,4.0,95,0.00,,,-99.99,,2013-08-08 12:32:00,
2013-08-08 06:43:00,43.0,42.0,-100.00,East,86,1.0,4.0,96,0.00,,,-99.99,,2013-08-08 12:43:00,
2013-08-08 06:52:00,44.0,43.0,-100.00,NNE,32,2.0,4.0,97,0.00,,,-99.99,,2013-08-08 12:52:00,
2013-08-08 07:01:00,46.0,45.0,-100.00,North,350,4.0,6.0,99,0.00,,,-99.99,,2013-08-08 13:01:00,
2013-08-08 07:11:00,47.0,47.0,-100.00,NNW,343,4.0,6.0,99,0.00,,,-99.99,,2013-08-08 13:11:00,
2013-08-08 07:22:00,48.0,48.0,-100.00,NNW,332,4.0,7.0,99,0.00,,,-99.99,,2013-08-08 13:22:00,
2013-08-08 07:32:00,48.0,48.0,-100.00,NNW,328,4.0,7.0,99,0.00,,,-99.99,,2013-08-08 13:32:00,
2013-08-08 08:02:00,49.0,48.0,-100.00,NW,304,1.0,4.0,99,0.00,,,-99.99,,2013-08-08 14:02:00,
2013-08-08 08:11:00,49.0,49.0,-100.00,NW,312,0.0,2.0,99,0.00,,,-99.99,,2013-08-08 14:11:00,
2013-08-08 08:22:00,49.0,49.0,-100.00,SW,227,1.0,4.0,99,0.00,,,-99.99,,2013-08-08 14:22:00,
2013-08-08 08:32:00,49.0,49.0,-100.00,WSW,240,4.0,6.0,99,0.00,,,-99.99,,2013-08-08 14:32:00,
2013-08-08 08:43:00,50.0,48.0,-100.00,SW,220,5.0,7.0,91,0.00,,,-99.99,,2013-08-08 14:43:00,
2013-08-08 08:53:00,52.0,46.0,-100.00,SSW,210,6.0,8.0,80,0.00,,,-99.99,,2013-08-08 14:53:00,
2013-08-08 09:02:00,55.0,47.0,-100.00,SSW,212,6.0,9.0,74,0.00,,,-99.99,,2013-08-08 15:02:00,
2013-08-08 09:11:00,56.0,45.0,-100.00,SSW,205,6.0,8.0,68,0.00,,,-99.99,,2013-08-08 15:11:00,
2013-08-08 09:22:00,58.0,44.0,-100.00,SW,224,4.0,7.0,60,0.00,,,-99.99,,2013-08-08 15:22:00,
2013-08-08 09:32:00,60.0,43.0,-100.00,WSW,247,2.0,4.0,53,0.00,,,-99.99,,2013-08-08 15:32:00,
2013-08-08 09:43:00,62.0,43.0,-100.00,South,176,1.0,4.0,49,0.00,,,-99.99,,2013-08-08 15:43:00,
2013-08-08 09:53:00,63.0,40.0,-100.00,SSE,165,2.0,5.0,43,0.00,,,-99.99,,2013-08-08 15:53:00,
2013-08-08 10:01:00,63.0,40.0,-100.00,SSE,147,4.0,6.0,44,0.00,,,-99.99,,2013-08-08 16:01:00,
2013-08-08 10:11:00,63.0,41.0,-100.00,SSE,158,2.0,5.0,44,0.00,,,-99.99,,2013-08-08 16:11:00,
2013-08-08 10:22:00,63.0,40.0,-100.00,SSW,202,2.0,4.0,42,0.00,,,-99.99,,2013-08-08 16:22:00,
2013-08-08 10:32:00,64.0,40.0,-100.00,SSE,164,1.0,4.0,42,0.00,,,-99.99,,2013-08-08 16:32:00,
2013-08-08 10:42:00,64.0,42.0,-100.00,ESE,107,3.0,7.0,45,0.00,,,-99.99,,2013-08-08 16:42:00,
2013-08-08 10:52:00,63.0,41.0,-100.00,ENE,58,6.0,9.0,44,0.00,,,-99.99,,2013-08-08 16:52:00,
2013-08-08 11:01:00,64.0,42.0,-100.00,ENE,65,4.0,7.0,44,0.00,,,-99.99,,2013-08-08 17:01:00,
2013-08-08 11:11:00,64.0,41.0,-100.00,ENE,69,2.0,6.0,43,0.00,,,-99.99,,2013-08-08 17:11:00,
2013-08-08 11:21:00,65.0,42.0,-100.00,ENE,72,3.0,6.0,42,0.00,,,-99.99,,2013-08-08 17:21:00,
2013-08-08 11:32:00,66.0,42.0,-100.00,NNE,30,3.0,6.0,43,0.00,,,-99.99,,2013-08-08 17:32:00,
2013-08-08 11:43:00,67.0,43.0,-100.00,ENE,71,4.0,9.0,42,0.00,,,-99.99,,2013-08-08 17:43:00,
2013-08-08 11:52:00,68.0,40.0,-100.00,East,90,2.0,6.0,36,0.00,,,-99.99,,2013-08-08 17:52:00,
2013-08-08 12:01:00,67.0,44.0,-100.00,East,89,5.0,11.0,44,0.00,,,-99.99,,2013-08-08 18:01:00,
2013-08-08 12:11:00,67.0,42.0,-100.00,East,89,4.0,8.0,40,0.00,,,-99.99,,2013-08-08 18:11:00,
2013-08-08 12:22:00,68.0,40.0,-100.00,East,90,6.0,11.0,37,0.00,,,-99.99,,2013-08-08 18:22:00,
2013-08-08 12:32:00,67.0,42.0,-100.00,East,90,6.0,11.0,40,0.00,,,-99.99,,2013-08-08 18:32:00,
2013-08-08 12:43:00,68.0,43.0,-100.00,East,90,6.0,12.0,40,0.00,,,-99.99,,2013-08-08 18:43:00,
2013-08-08 12:52:00,68.0,43.0,-100.00,East,90,7.0,13.0,40,0.00,,,-99.99,,2013-08-08 18:52:00,
2013-08-08 13:01:00,68.0,42.0,-100.00,East,90,10.0,16.0,39,0.00,,,-99.99,,2013-08-08 19:01:00,
2013-08-08 13:11:00,68.0,43.0,-100.00,East,90,9.0,17.0,40,0.00,,,-99.99,,2013-08-08 19:11:00,
2013-08-08 13:22:00,67.0,43.0,-100.00,East,90,12.0,17.0,41,0.00,,,-99.99,,2013-08-08 19:22:00,
2013-08-08 13:32:00,69.0,42.0,-100.00,East,89,10.0,16.0,37,0.00,,,-99.99,,2013-08-08 19:32:00,
2013-08-08 13:43:00,70.0,41.0,-100.00,East,89,7.0,13.0,35,0.00,,,-99.99,,2013-08-08 19:43:00,
2013-08-08 13:54:00,71.0,40.0,-100.00,East,90,9.0,16.0,33,0.00,,,-99.99,,2013-08-08 19:54:00,
2013-08-08 14:02:00,71.0,40.0,-100.00,East,90,9.0,15.0,33,0.00,,,-99.99,,2013-08-08 20:02:00,
2013-08-08 14:11:00,71.0,42.0,-100.00,East,89,7.0,16.0,34,0.00,,,-99.99,,2013-08-08 20:11:00,
2013-08-08 14:22:00,71.0,40.0,-100.00,East,89,10.0,17.0,33,0.00,,,-99.99,,2013-08-08 20:22:00,
2013-08-08 14:32:00,70.0,41.0,-100.00,East,89,10.0,16.0,34,0.00,,,-99.99,,2013-08-08 20:32:00,
2013-08-08 14:42:00,70.0,38.0,-100.00,East,89,9.0,15.0,31,0.00,,,-99.99,,2013-08-08 20:42:00,
2013-08-08 14:52:00,71.0,38.0,-100.00,East,90,7.0,12.0,31,0.00,,,-99.99,,2013-08-08 20:52:00,
2013-08-08 15:01:00,72.0,35.0,-100.00,East,90,5.0,9.0,25,0.00,,,-99.99,,2013-08-08 21:01:00,
2013-08-08 15:12:00,71.0,36.0,-100.00,East,90,7.0,14.0,28,0.00,,,-99.99,,2013-08-08 21:12:00,
2013-08-08 15:22:00,71.0,36.0,-100.00,East,90,6.0,12.0,28,0.00,,,-99.99,,2013-08-08 21:22:00,
2013-08-08 15:33:00,70.0,34.0,-100.00,East,90,6.0,14.0,26,0.00,,,-99.99,,2013-08-08 21:33:00,
2013-08-08 15:43:00,69.0,36.0,-100.00,East,89,6.0,10.0,30,0.00,,,-99.99,,2013-08-08 21:43:00,
2013-08-08 15:52:00,65.0,42.0,-100.00,East,90,11.0,17.0,42,0.00,,,-99.99,,2013-08-08 21:52:00,
2013-08-08 16:04:00,65.0,42.0,-100.00,East,90,17.0,25.0,43,0.00,,,-99.99,,2013-08-08 22:04:00,
2013-08-08 16:15:00,63.0,40.0,-100.00,East,89,22.0,32.0,43,0.00,,,-99.99,,2013-08-08 22:15:00,
2013-08-08 16:33:00,63.0,40.0,-100.00,East,89,22.0,30.0,42,0.00,,,-99.99,,2013-08-08 22:33:00,
2013-08-08 16:47:00,63.0,41.0,-100.00,East,90,28.0,34.0,44,0.00,,,-99.99,,2013-08-08 22:47:00,
2013-08-08 16:54:00,62.0,41.0,-100.00,East,100,29.0,37.0,45,0.00,,,-99.99,,2013-08-08 22:54:00,
2013-08-08 17:04:00,62.0,40.0,-100.00,East,100,30.0,38.0,45,0.00,,,-99.99,,2013-08-08 23:04:00,
2013-08-08 17:13:00,62.0,40.0,-100.00,East,100,29.0,35.0,43,0.00,,,-99.99,,2013-08-08 23:13:00,
2013-08-08 17:23:00,63.0,39.0,-100.00,East,100,30.0,37.0,41,0.00,,,-99.99,,2013-08-08 23:23:00,
2013-08-08 17:34:00,62.0,41.0,-100.00,East,100,27.0,34.0,46,0.00,,,-99.99,,2013-08-08 23:34:00,
2013-08-08 17:44:00,61.0,42.0,-100.00,East,100,24.0,30.0,49,0.00,,,-99.99,,2013-08-08 23:44:00,
2013-08-08 17:53:00,60.0,41.0,-100.00,East,100,22.0,29.0,49,0.00,,,-99.99,,2013-08-08 23:53:00,
2013-08-08 18:04:00,61.0,40.0,-100.00,East,100,19.0,27.0,47,0.00,,,-99.99,,2013-08-09 00:04:00,
2013-08-08 18:14:00,61.0,40.0,-100.00,East,100,17.0,23.0,45,0.00,,,-99.99,,2013-08-09 00:14:00,
2013-08-08 18:24:00,62.0,39.0,-100.00,East,100,15.0,19.0,41,0.00,,,-99.99,,2013-08-09 00:24:00,
2013-08-08 18:34:00,62.0,40.0,-100.00,East,100,12.0,17.0,45,0.00,,,-99.99,,2013-08-09 00:34:00,
2013-08-08 18:45:00,61.0,41.0,-100.00,ESE,123,11.0,16.0,49,0.00,,,-99.99,,2013-08-09 00:45:00,
2013-08-08 18:53:00,61.0,41.0,-100.00,SSE,147,9.0,14.0,48,0.00,,,-99.99,,2013-08-09 00:53:00,
2013-08-08 19:02:00,61.0,41.0,-100.00,SSE,152,8.0,11.0,48,0.00,,,-99.99,,2013-08-09 01:02:00,
2013-08-08 19:13:00,62.0,39.0,-100.00,SE,138,10.0,14.0,44,0.00,,,-99.99,,2013-08-09 01:13:00,
2013-08-08 19:23:00,61.0,39.0,-100.00,SE,141,10.0,14.0,45,0.00,,,-99.99,,2013-08-09 01:23:00,
2013-08-08 19:33:00,59.0,40.0,-100.00,ESE,104,9.0,17.0,49,0.00,,,-99.99,,2013-08-09 01:33:00,
2013-08-08 19:45:00,59.0,40.0,-100.00,ESE,106,9.0,16.0,50,0.00,,,-99.99,,2013-08-09 01:45:00,
2013-08-08 20:03:00,58.0,41.0,-100.00,ESE,120,7.0,14.0,53,0.00,,,-99.99,,2013-08-09 02:03:00,
2013-08-08 20:12:00,57.0,41.0,-100.00,SE,136,6.0,7.0,54,0.00,,,-99.99,,2013-08-09 02:12:00,
2013-08-08 20:23:00,56.0,41.0,-100.00,SSE,165,5.0,7.0,56,0.00,,,-99.99,,2013-08-09 02:23:00,
2013-08-08 20:35:00,56.0,40.0,-100.00,South,182,6.0,8.0,56,0.00,,,-99.99,,2013-08-09 02:35:00,
2013-08-08 20:44:00,55.0,40.0,-100.00,SSW,208,9.0,11.0,57,0.00,,,-99.99,,2013-08-09 02:44:00,
2013-08-08 20:55:00,55.0,41.0,-100.00,SSW,209,8.0,11.0,57,0.00,,,-99.99,,2013-08-09 02:55:00,
2013-08-08 21:04:00,55.0,41.0,-100.00,SW,220,6.0,8.0,58,0.00,,,-99.99,,2013-08-09 03:04:00,
2013-08-08 21:13:00,55.0,40.0,-100.00,SW,226,3.0,6.0,57,0.00,,,-99.99,,2013-08-09 03:13:00,
2013-08-08 21:23:00,55.0,41.0,-100.00,SSW,208,3.0,5.0,58,0.00,,,-99.99,,2013-08-09 03:23:00,
2013-08-08 21:34:00,55.0,42.0,-100.00,SE,128,2.0,6.0,61,0.00,,,-99.99,,2013-08-09 03:34:00,
2013-08-08 21:44:00,56.0,43.0,-100.00,SE,141,6.0,9.0,61,0.00,,,-99.99,,2013-08-09 03:44:00,
2013-08-08 21:52:00,55.0,42.0,-100.00,South,181,9.0,11.0,61,0.00,,,-99.99,,2013-08-09 03:52:00,
2013-08-08 22:01:00,54.0,42.0,-100.00,South,182,7.0,9.0,63,0.00,,,-99.99,,2013-08-09 04:01:00,
2013-08-08 22:12:00,54.0,43.0,-100.00,SE,131,7.0,13.0,67,0.00,,,-99.99,,2013-08-09 04:12:00,
2013-08-08 22:22:00,52.0,44.0,-100.00,ESE,120,10.0,17.0,73,0.00,,,-99.99,,2013-08-09 04:22:00,
2013-08-08 22:33:00,55.0,43.0,-100.00,South,171,6.0,11.0,64,0.00,,,-99.99,,2013-08-09 04:33:00,
2013-08-08 22:43:00,52.0,43.0,-100.00,ENE,65,6.0,12.0,72,0.00,,,-99.99,,2013-08-09 04:43:00,
2013-08-08 22:53:00,53.0,43.0,-100.00,SSE,167,2.0,6.0,68,0.00,,,-99.99,,2013-08-09 04:53:00,
2013-08-08 23:02:00,53.0,44.0,-100.00,South,172,4.0,7.0,70,0.00,,,-99.99,,2013-08-09 05:02:00,
2013-08-08 23:11:00,52.0,43.0,-100.00,SSW,196,6.0,11.0,71,0.00,,,-99.99,,2013-08-09 05:11:00,
2013-08-08 23:21:00,50.0,43.0,-100.00,South,171,9.0,11.0,75,0.00,,,-99.99,,2013-08-09 05:21:00,
2013-08-08 23:32:00,51.0,43.0,-100.00,South,172,6.0,10.0,73,0.00,,,-99.99,,2013-08-09 05:32:00,
2013-08-08 23:43:00,51.0,43.0,-100.00,SSW,196,4.0,6.0,73,0.00,,,-99.99,,2013-08-09 05:43:00,
2013-08-08 23:52:00,51.0,42.0,-100.00,South,172,5.0,6.0,72,0.00,,,-99.99,,2013-08-09 05:52:00,